EW6800 Weather Reports


Display with metric or nautical units.
time (UTC)temp
F
wind
direction
speed
MPH
gust
MPH
rain 1hr
in
rain 24hr
in
rain mn
in
humidity
%
barometer
mb
20260903211557 69 336 1.0 5.0 0.00 0.00 0.00 67 1015.0
20260903211044 69 277 1.0 7.0 0.00 0.00 0.00 67 1015.0
20260903210544 69 229 3.0 7.0 0.00 0.00 0.00 68 1015.0
20260903210058 69 0 2.0 5.0 0.00 0.00 0.00 68 1015.0
20260903205547 69 298 1.0 4.0 0.00 0.00 0.00 67 1015.0
20260903205044 69 248 1.0 4.0 0.00 0.00 0.00 69 1015.1
20260903204553 68 256 1.0 4.0 0.00 0.00 0.00 69 1015.1
20260903204044 68 298 2.0 5.0 0.00 0.00 0.00 69 1015.0
20260903203544 68 212 2.0 5.0 0.00 0.00 0.00 69 1015.0
20260903203108 68 303 2.0 5.0 0.00 0.00 0.00 69 1015.0
20260903202544 69 292 2.0 4.0 0.00 0.00 0.00 68 1015.0
20260903202044 68 201 1.0 4.0 0.00 0.00 0.00 69 1015.1
20260903201556 68 0 1.0 4.0 0.00 0.00 0.00 69 1015.1
20260903201045 68 311 2.0 4.0 0.00 0.00 0.00 68 1015.2
20260903200544 68 0 1.0 4.0 0.00 0.00 0.00 70 1015.2
20260903200111 68 247 2.0 5.0 0.00 0.00 0.00 69 1015.2
20260903195543 68 197 1.0 5.0 0.00 0.00 0.00 70 1015.2
20260903195044 67 305 1.0 5.0 0.00 0.00 0.00 72 1015.2
20260903194559 67 293 2.0 5.0 0.00 0.00 0.00 71 1015.4
20260903194045 67 271 1.0 4.0 0.00 0.00 0.00 72 1015.4
20260903193544 67 221 0.0 5.0 0.00 0.00 0.00 71 1015.4
20260903193054 67 290 1.0 5.0 0.00 0.00 0.00 70 1015.4
20260903192545 67 302 2.0 4.0 0.00 0.00 0.00 70 1015.6
20260903192043 67 161 1.0 4.0 0.00 0.00 0.00 70 1015.6
20260903191602 66 0 0.0 3.0 0.00 0.00 0.00 73 1015.7
20260903191044 66 0 0.0 3.0 0.00 0.00 0.00 73 1015.9
20260903190546 65 329 0.0 3.0 0.00 0.00 0.00 73 1015.9
20260903190057 65 0 0.0 3.0 0.00 0.00 0.00 74 1016.0
20260903185544 65 0 0.0 3.0 0.00 0.00 0.00 74 1016.0
20260903185044 65 0 0.0 3.0 0.00 0.00 0.00 74 1016.0
20260903184555 65 329 1.0 4.0 0.00 0.00 0.00 73 1016.1
20260903184045 65 318 2.0 4.0 0.00 0.00 0.00 73 1016.1
20260903183544 65 323 1.0 4.0 0.00 0.00 0.00 73 1016.1
20260903183057 65 0 1.0 4.0 0.00 0.00 0.00 73 1016.1
20260903182544 65 0 0.0 4.0 0.00 0.00 0.00 73 1016.1
20260903182043 65 0 0.0 2.0 0.00 0.00 0.00 73 1016.0
20260903181603 64 0 0.0 1.0 0.00 0.00 0.00 74 1016.0
20260903181046 64 0 0.0 1.0 0.00 0.00 0.00 76 1016.2
20260903180545 63 0 0.0 1.0 0.00 0.00 0.00 77 1016.1
20260903180058 62 0 0.0 1.0 0.00 0.00 0.00 78 1016.0
20260903175544 61 232 0.0 1.0 0.00 0.00 0.00 80 1016.1
20260903175043 61 0 0.0 1.0 0.00 0.00 0.00 80 1016.2
20260903174555 61 0 0.0 1.0 0.00 0.00 0.00 81 1016.2
20260903174044 61 0 0.0 0.0 0.00 0.00 0.00 82 1016.1
20260903173547 60 0 0.0 0.0 0.00 0.00 0.00 81 1016.1
20260903173058 60 0 0.0 0.0 0.00 0.00 0.00 83 1016.1
20260903172544 59 0 0.0 0.0 0.00 0.00 0.00 84 1016.1
20260903172044 59 0 0.0 1.0 0.00 0.00 0.00 85 1016.0
20260903171601 59 0 0.0 1.0 0.00 0.00 0.00 86 1016.1
20260903171045 58 0 0.0 0.0 0.00 0.00 0.00 86 1016.1
20260903170544 58 0 0.0 0.0 0.00 0.00 0.00 86 1016.1
20260903165544 57 0 0.0 0.0 0.00 0.00 0.00 88 1016.1
20260903165048 57 0 0.0 0.0 0.00 0.00 0.00 89 1016.2
20260903164557 57 0 0.0 2.0 0.00 0.00 0.00 90 1016.2
20260903164044 56 0 0.0 2.0 0.00 0.00 0.00 90 1016.1
20260903163544 56 28 0.0 3.0 0.00 0.00 0.00 91 1016.2
20260903163055 56 28 1.0 3.0 0.00 0.00 0.00 92 1016.3
20260903162544 55 0 1.0 3.0 0.00 0.00 0.00 93 1016.1
20260903162044 55 0 1.0 3.0 0.00 0.00 0.00 94 1016.1
20260903161603 55 0 0.0 2.0 0.00 0.00 0.00 94 1016.2
20260903161044 54 37 0.0 2.0 0.00 0.00 0.00 95 1016.3
20260903160544 54 0 0.0 2.0 0.00 0.00 0.00 95 1016.3
20260903160057 54 0 0.0 3.0 0.00 0.00 0.00 95 1016.2
20260903155546 54 0 0.0 3.0 0.00 0.00 0.00 95 1016.2
20260903155043 54 0 1.0 3.0 0.00 0.00 0.00 95 1016.3
20260903154554 53 318 1.0 3.0 0.00 0.00 0.00 95 1016.4
20260903154044 53 312 1.0 3.0 0.00 0.00 0.00 95 1016.2
20260903153543 53 312 2.0 5.0 0.00 0.00 0.00 95 1016.3
20260903153104 53 312 2.0 5.0 0.00 0.00 0.00 95 1016.3
20260903152544 53 311 3.0 5.0 0.00 0.00 0.00 95 1016.4
20260903152044 53 315 2.0 4.0 0.00 0.00 0.00 95 1016.3
20260903151551 53 315 2.0 4.0 0.00 0.00 0.00 95 1016.3
20260903151044 53 305 2.0 5.0 0.00 0.00 0.00 94 1016.3
20260903150545 53 305 2.0 5.0 0.00 0.00 0.00 94 1016.3
20260903150111 52 300 2.0 5.0 0.00 0.00 0.00 94 1016.3
20260903145543 53 311 3.0 5.0 0.00 0.00 0.00 94 1016.2
20260903145043 53 327 3.0 5.0 0.00 0.00 0.00 94 1016.3
20260903144610 52 319 3.0 5.0 0.00 0.00 0.00 94 1016.3
20260903144044 52 313 3.0 5.0 0.00 0.00 0.00 94 1016.4
20260903143543 52 306 3.0 5.0 0.00 0.00 0.00 94 1016.3
20260903143054 52 314 3.0 5.0 0.00 0.00 0.00 94 1016.2
20260903142543 52 304 2.0 5.0 0.00 0.00 0.00 94 1016.2
20260903142043 52 319 3.0 8.0 0.00 0.00 0.00 94 1016.1
20260903141553 51 311 4.0 8.0 0.00 0.00 0.00 94 1016.1
20260903141044 51 294 3.0 5.0 0.00 0.00 0.00 93 1016.1
20260903140544 51 312 2.0 3.0 0.00 0.00 0.00 93 1016.0
20260903140104 51 312 1.0 2.0 0.00 0.00 0.00 93 1016.0
20260903135544 51 0 0.0 0.0 0.00 0.00 0.00 93 1016.0
20260903135045 51 0 0.0 0.0 0.00 0.00 0.00 93 1015.8
20260903134614 51 0 0.0 1.0 0.00 0.00 0.00 93 1015.8
20260903134047 51 0 0.0 2.0 0.00 0.00 0.00 93 1015.8
20260903133547 51 0 0.0 3.0 0.00 0.00 0.00 93 1015.9
20260903133106 51 312 0.0 3.0 0.00 0.00 0.00 93 1015.8
20260903132543 51 312 1.0 4.0 0.00 0.00 0.00 93 1015.9
20260903132045 52 312 2.0 5.0 0.00 0.00 0.00 93 1015.9
20260903131605 52 312 3.0 5.0 0.00 0.00 0.00 92 1015.9
20260903131045 52 313 3.0 5.0 0.00 0.00 0.00 92 1015.8
20260903130544 52 316 3.0 5.0 0.00 0.00 0.00 92 1015.9
20260903130105 52 309 3.0 5.0 0.00 0.00 0.00 92 1015.8
20260903125546 52 317 1.0 4.0 0.00 0.00 0.00 91 1015.8
20260903125044 52 317 2.0 4.0 0.00 0.00 0.00 91 1015.8
20260903124600 53 317 2.0 5.0 0.00 0.00 0.00 91 1015.8
20260903124043 53 318 2.0 5.0 0.00 0.00 0.00 90 1015.9
20260903123546 53 318 1.0 4.0 0.00 0.00 0.00 90 1016.0
20260903123057 53 317 2.0 4.0 0.00 0.00 0.00 90 1016.0
20260903122543 53 317 2.0 4.0 0.00 0.00 0.00 89 1016.1
20260903122043 53 321 2.0 4.0 0.00 0.00 0.00 89 1016.1
20260903121601 53 321 2.0 4.0 0.00 0.00 0.00 88 1016.1
20260903121044 53 313 2.0 5.0 0.00 0.00 0.00 87 1016.0
20260903120544 54 311 2.0 5.0 0.00 0.00 0.00 86 1016.1
20260903120109 54 319 2.0 4.0 0.00 0.00 0.00 85 1016.0
20260903115543 54 319 0.0 4.0 0.00 0.00 0.00 85 1016.1
20260903115043 54 319 1.0 4.0 0.00 0.00 0.00 85 1016.2
20260903114555 54 319 1.0 4.0 0.00 0.00 0.00 85 1016.1
20260903114043 54 317 2.0 4.0 0.00 0.00 0.00 85 1016.1
20260903113544 54 321 3.0 6.0 0.00 0.00 0.00 85 1016.2
20260903113053 54 316 2.0 7.0 0.00 0.00 0.00 84 1016.3
20260903112543 54 316 3.0 7.0 0.00 0.00 0.00 84 1016.3
20260903112043 54 312 3.0 5.0 0.00 0.00 0.00 83 1016.4
20260903111551 55 309 3.0 7.0 0.00 0.00 0.00 81 1016.4
20260903111044 55 315 3.0 7.0 0.00 0.00 0.00 80 1016.5
20260903110544 55 311 3.0 7.0 0.00 0.00 0.00 79 1016.6
20260903110104 55 302 4.0 6.0 0.00 0.00 0.00 78 1016.5
20260903105547 55 312 3.0 7.0 0.00 0.00 0.00 77 1016.6
20260903105044 55 312 3.0 8.0 0.00 0.00 0.00 77 1016.6
20260903104622 55 311 4.0 8.0 0.00 0.00 0.00 75 1016.6
20260903104043 55 318 4.0 8.0 0.00 0.00 0.00 75 1016.6
20260903103546 55 306 4.0 8.0 0.00 0.00 0.00 75 1016.5
20260903103104 55 306 4.0 8.0 0.00 0.00 0.00 75 1016.6
20260903102543 55 311 4.0 7.0 0.00 0.00 0.00 75 1016.6
20260903102042 55 309 3.0 7.0 0.00 0.00 0.00 74 1016.5
20260903101604 55 311 3.0 7.0 0.00 0.00 0.00 74 1016.6
20260903101047 55 313 4.0 7.0 0.00 0.00 0.00 74 1016.6
20260903100544 55 308 3.0 7.0 0.00 0.00 0.00 74 1016.6
20260903100217 55 311 4.0 7.0 0.00 0.00 0.00 74 1016.6
20260903095542 55 311 3.0 7.0 0.00 0.00 0.00 75 1016.6
20260903095043 55 306 3.0 7.0 0.00 0.00 0.00 75 1016.7
20260903094605 55 300 4.0 5.0 0.00 0.00 0.00 76 1016.7
20260903094043 55 311 4.0 5.0 0.00 0.00 0.00 76 1016.8
20260903093543 55 311 3.0 6.0 0.00 0.00 0.00 77 1016.8
20260903093105 55 309 4.0 7.0 0.00 0.00 0.00 76 1016.9
20260903092545 55 323 3.0 7.0 0.00 0.00 0.00 76 1016.8
20260903092044 55 305 3.0 7.0 0.00 0.00 0.00 75 1016.9
20260903091615 55 311 3.0 8.0 0.00 0.00 0.00 75 1017.0
20260903091043 55 312 5.0 8.0 0.00 0.00 0.00 74 1017.0
20260903090543 55 313 3.0 7.0 0.00 0.00 0.00 74 1017.1
20260903090059 55 311 3.0 7.0 0.00 0.00 0.00 74 1017.1
20260903085543 55 306 4.0 7.0 0.00 0.00 0.00 74 1017.0
20260903085042 55 308 4.0 7.0 0.00 0.00 0.00 75 1017.1
20260903084600 55 310 4.0 7.0 0.00 0.00 0.00 76 1017.0
20260903084043 54 312 4.0 7.0 0.00 0.00 0.00 78 1017.1
20260903083546 54 319 3.0 5.0 0.00 0.00 0.00 81 1017.1
20260903083059 54 323 3.0 5.0 0.00 0.00 0.00 82 1017.1
20260903082543 54 313 3.0 5.0 0.00 0.00 0.00 83 1017.2
20260903082044 53 315 3.0 5.0 0.00 0.00 0.00 83 1017.2
20260903081549 53 315 3.0 5.0 0.00 0.00 0.00 84 1017.2
20260903081043 53 315 3.0 5.0 0.00 0.00 0.00 86 1017.3
20260903080542 53 315 3.0 5.0 0.00 0.00 0.00 89 1017.2
20260903075544 52 317 3.0 5.0 0.00 0.00 0.00 90 1017.3
20260903075043 52 316 4.0 5.0 0.00 0.00 0.00 91 1017.1
20260903074603 52 316 3.0 7.0 0.00 0.00 0.00 92 1017.2
20260903074043 53 315 3.0 8.0 0.00 0.00 0.00 92 1017.1
20260903073543 53 315 4.0 8.0 0.00 0.00 0.00 92 1017.1
20260903073059 53 311 3.0 5.0 0.00 0.00 0.00 92 1017.1
20260903072543 53 315 3.0 5.0 0.00 0.00 0.00 91 1017.0
20260903072043 53 305 3.0 5.0 0.00 0.00 0.00 90 1016.9
20260903071614 53 316 3.0 6.0 0.00 0.00 0.00 89 1017.0
20260903071042 53 313 3.0 8.0 0.00 0.00 0.00 88 1017.0
20260903070542 53 315 4.0 9.0 0.00 0.00 0.00 89 1017.0
20260903070100 53 312 5.0 9.0 0.00 0.00 0.00 90 1017.0
20260903065546 53 302 6.0 9.0 0.00 0.00 0.00 91 1016.8
20260903065043 53 313 5.0 8.0 0.00 0.00 0.00 92 1016.9
20260903064559 52 333 5.0 8.0 0.00 0.00 0.00 92 1016.9
20260903064043 53 315 4.0 7.0 0.00 0.00 0.00 92 1016.9
20260903063543 53 315 4.0 7.0 0.00 0.00 0.00 92 1016.9
20260903063106 53 307 3.0 6.0 0.00 0.00 0.00 92 1017.0
20260903062547 53 316 3.0 6.0 0.00 0.00 0.00 92 1017.0
20260903062043 53 317 4.0 7.0 0.00 0.00 0.00 92 1017.0
20260903061600 53 312 4.0 7.0 0.00 0.00 0.00 92 1017.1
20260903061042 53 309 4.0 7.0 0.00 0.00 0.00 91 1017.1
20260903060543 54 315 3.0 8.0 0.00 0.00 0.00 91 1017.1
20260903060058 54 317 4.0 8.0 0.00 0.00 0.00 90 1017.2
20260903055543 54 306 4.0 8.0 0.00 0.00 0.00 89 1017.2
20260903055043 54 308 3.0 7.0 0.00 0.00 0.00 88 1017.3
20260903054556 54 296 3.0 7.0 0.00 0.00 0.00 87 1017.4
20260903054043 54 326 3.0 8.0 0.00 0.00 0.00 86 1017.5
20260903053547 54 318 3.0 8.0 0.00 0.00 0.00 86 1017.4
20260903053117 55 305 4.0 8.0 0.00 0.00 0.00 85 1017.4
20260903052633 55 305 4.0 8.0 0.00 0.00 0.00 85 1017.5
20260903052043 55 311 5.0 8.0 0.00 0.00 0.00 84 1017.4
20260903051559 55 312 4.0 8.0 0.00 0.00 0.00 83 1017.5
20260903051046 55 316 5.0 9.0 0.00 0.00 0.00 82 1017.4
20260903050547 55 302 5.0 9.0 0.00 0.00 0.00 82 1017.5
20260903050106 55 309 7.0 10.0 0.00 0.00 0.00 82 1017.6
20260903045544 55 315 7.0 10.0 0.00 0.00 0.00 81 1017.5
20260903045043 55 299 7.0 10.0 0.00 0.00 0.00 80 1017.5
20260903044601 55 312 6.0 10.0 0.00 0.00 0.00 80 1017.5
20260903044043 55 314 5.0 9.0 0.00 0.00 0.00 80 1017.5
20260903043543 55 317 5.0 9.0 0.00 0.00 0.00 80 1017.4
20260903043112 54 315 5.0 8.0 0.00 0.00 0.00 82 1017.4
20260903042544 54 308 4.0 5.0 0.00 0.00 0.00 84 1017.4
20260903042047 54 314 2.0 5.0 0.00 0.00 0.00 88 1017.4
20260903041600 54 317 3.0 5.0 0.00 0.00 0.00 89 1017.3
20260903041045 54 313 3.0 5.0 0.00 0.00 0.00 90 1017.4
20260903040544 54 317 3.0 5.0 0.00 0.00 0.00 90 1017.2
20260903040058 54 319 2.0 4.0 0.00 0.00 0.00 89 1017.3
20260903035543 55 322 2.0 5.0 0.00 0.00 0.00 90 1017.3
20260903035044 55 306 2.0 5.0 0.00 0.00 0.00 89 1017.2
20260903034608 55 307 2.0 4.0 0.00 0.00 0.00 89 1017.1
20260903034043 55 309 2.0 5.0 0.00 0.00 0.00 89 1017.1
20260903033543 55 313 2.0 6.0 0.00 0.00 0.00 89 1017.1
20260903033100 55 321 2.0 7.0 0.00 0.00 0.00 88 1017.1
20260903032544 55 313 3.0 7.0 0.00 0.00 0.00 88 1017.1
20260903032046 55 312 3.0 7.0 0.00 0.00 0.00 88 1017.1
20260903031618 56 309 3.0 8.0 0.00 0.00 0.00 87 1017.1
20260903031044 56 317 3.0 8.0 0.00 0.00 0.00 87 1017.1
20260903030543 56 301 4.0 8.0 0.00 0.00 0.00 86 1017.1
20260903030054 56 315 4.0 8.0 0.00 0.00 0.00 86 1017.0
20260903025544 56 304 4.0 8.0 0.00 0.00 0.00 85 1017.0
20260903025047 57 309 4.0 8.0 0.00 0.00 0.00 84 1017.0
20260903024600 57 311 4.0 9.0 0.00 0.00 0.00 83 1017.1
20260903024044 57 306 4.0 9.0 0.00 0.00 0.00 83 1017.0
20260903023547 57 313 6.0 9.0 0.00 0.00 0.00 82 1017.0
20260903023059 58 312 5.0 9.0 0.00 0.00 0.00 80 1017.0
20260903022545 58 304 6.0 9.0 0.00 0.00 0.00 79 1017.0
20260903022045 58 306 5.0 9.0 0.00 0.00 0.00 78 1017.0
20260903021555 58 319 6.0 9.0 0.00 0.00 0.00 76 1017.0
20260903021118 58 303 5.0 9.0 0.00 0.00 0.00 75 1016.9
20260903020544 58 302 6.0 9.0 0.00 0.00 0.00 76 1017.1
20260903020104 59 318 5.0 9.0 0.00 0.00 0.00 74 1017.2
20260903015543 59 316 6.0 10.0 0.00 0.00 0.00 75 1017.2
20260903015042 59 308 5.0 10.0 0.00 0.00 0.00 76 1017.2
20260903014556 59 291 6.0 10.0 0.00 0.00 0.00 76 1017.3
20260903014044 60 323 6.0 10.0 0.00 0.00 0.00 76 1017.3
20260903013544 60 324 5.0 11.0 0.00 0.00 0.00 76 1017.4
20260903013057 60 309 5.0 11.0 0.00 0.00 0.00 77 1017.4
20260903012544 61 313 5.0 10.0 0.00 0.00 0.00 77 1017.4
20260903012043 61 298 4.0 9.0 0.00 0.00 0.00 77 1017.4
20260903011559 61 302 6.0 9.0 0.00 0.00 0.00 77 1017.4
20260903011043 61 286 4.0 7.0 0.00 0.00 0.00 78 1017.5
20260903010545 62 303 4.0 7.0 0.00 0.00 0.00 78 1017.4
20260903010056 62 299 3.0 7.0 0.00 0.00 0.00 77 1017.5
20260903005545 62 302 3.0 8.0 0.00 0.00 0.00 77 1017.5
20260903005043 62 314 4.0 8.0 0.00 0.00 0.00 76 1017.4
20260903004601 62 302 5.0 9.0 0.00 0.00 0.00 76 1017.4
20260903004044 63 302 4.0 9.0 0.00 0.00 0.00 75 1017.4
20260903003544 63 321 4.0 8.0 0.00 0.00 0.00 75 1017.4
20260903003105 63 299 4.0 8.0 0.00 0.00 0.00 75 1017.4
20260903002543 63 309 5.0 11.0 0.00 0.00 0.00 75 1017.3
20260903002044 64 315 5.0 11.0 0.00 0.00 0.00 74 1017.3
20260903001554 64 317 5.0 10.0 0.00 0.00 0.00 74 1017.4
20260903001051 64 313 3.0 9.0 0.00 0.00 0.00 74 1017.5
20260903000543 64 307 3.0 9.0 0.00 0.00 0.00 73 1017.5
20260903000057 65 294 3.0 9.0 0.00 0.00 0.00 71 1017.4
20260902235543 65 310 3.0 7.0 0.00 0.00 0.00 71 1017.5
20260902235044 66 328 2.0 7.0 0.00 0.00 0.00 71 1017.5
20260902234555 66 306 3.0 9.0 0.00 0.00 0.00 69 1017.5
20260902234047 67 311 3.0 9.0 0.00 0.00 0.00 67 1017.5
20260902233544 68 315 2.0 5.0 0.00 0.00 0.00 65 1017.5
20260902233059 69 318 1.0 9.0 0.00 0.00 0.00 64 1017.5
20260902232543 69 0 1.0 9.0 0.00 0.00 0.00 64 1017.5
20260902232043 69 278 1.0 6.0 0.00 0.00 0.00 63 1017.5
20260902231601 69 0 1.0 4.0 0.00 0.00 0.00 63 1017.5
20260902231044 69 0 1.0 8.0 0.00 0.00 0.00 64 1017.5
20260902230544 69 0 1.0 8.0 0.00 0.00 0.00 63 1017.5
20260902230056 69 214 1.0 7.0 0.00 0.00 0.00 63 1017.6
20260902225543 69 298 1.0 7.0 0.00 0.00 0.00 63 1017.6
20260902225046 69 239 2.0 6.0 0.00 0.00 0.00 63 1017.7
20260902224556 69 54 1.0 4.0 0.00 0.00 0.00 66 1017.7
20260902224044 69 0 1.0 4.0 0.00 0.00 0.00 67 1017.7
20260902223543 69 279 1.0 6.0 0.00 0.00 0.00 66 1017.8
20260902223102 69 0 0.0 7.0 0.00 0.00 0.00 67 1017.7
20260902222545 69 217 1.0 7.0 0.00 0.00 0.00 65 1017.8
20260902222045 69 211 0.0 5.0 0.00 0.00 0.00 67 1017.8
20260902221607 69 209 1.0 7.0 0.00 0.00 0.00 65 1017.9
20260902221046 69 0 1.0 7.0 0.00 0.00 0.00 66 1018.0
20260902220543 68 269 2.0 7.0 0.00 0.00 0.00 64 1018.1
20260902220100 68 154 0.0 6.0 0.00 0.00 0.00 68 1018.1
20260902215543 68 0 0.0 6.0 0.00 0.00 0.00 68 1018.2
20260902215043 67 144 1.0 6.0 0.00 0.00 0.00 70 1018.2
20260902214604 66 0 1.0 7.0 0.00 0.00 0.00 73 1018.3
20260902214044 66 117 2.0 7.0 0.00 0.00 0.00 75 1018.4
20260902213544 66 235 0.0 7.0 0.00 0.00 0.00 74 1018.5
20260902213059 65 100 2.0 7.0 0.00 0.00 0.00 75 1018.5
20260902212544 66 117 1.0 6.0 0.00 0.00 0.00 75 1018.5
20260902212044 66 101 1.0 5.0 0.00 0.00 0.00 76 1018.6